^^
Datos históricos de la estación: Murcia-Puente Tocinos
Diario Informe para Abril 18, 2019 Unidades:  Métrico    Inglés   Ambas
Diario Semanal Mensual Anual Configurable
  Máximo: Mínimo: Media:
Temperatura: 18.2 °C 14.2 °C 15.9 °C
Punto de rocio: 11.9 °C 7.8 °C 10.1 °C
Humedad: 79% 53% 69%
Velocidad viento: 27.0km/h 0.0km/h 7.7km/h
Racha viento: 46.3km/h - -
Viento- - WSW
Presión: 1014.3 hPa 1008.2 hPa -
Precipitación: 0.0 mm    
Historical Graphs
 
 
Tabla de datos para Abril 18, 2019
Hora Temperatura Punto de rocio Presión Viento Velocidad viento Racha viento Humedad Intensidad lluvia(por hora) Nubes
00:00 15.4 °C 11.8 °C 1013.8 hPa West 9.7 km/h 14.5 km/h 79% 0.0 mm CLR
00:05 15.6 °C 11.6 °C 1014.3 hPa West 8.7 km/h 13.0 km/h 77% 0.0 mm CLR
00:10 15.7 °C 11.5 °C 1014.3 hPa WSW 7.6 km/h 16.7 km/h 76% 0.0 mm CLR
00:15 15.8 °C 11.8 °C 1014.3 hPa West 7.6 km/h 14.8 km/h 77% 0.0 mm CLR
00:20 15.8 °C 11.8 °C 1014.1 hPa West 9.5 km/h 11.1 km/h 77% 0.0 mm CLR
00:25 15.8 °C 11.9 °C 1014.1 hPa NW 9.5 km/h 9.3 km/h 78% 0.0 mm CLR
00:30 15.7 °C 11.9 °C 1014.1 hPa NW 5.0 km/h 9.3 km/h 78% 0.0 mm CLR
00:35 15.7 °C 11.9 °C 1013.4 hPa WNW 4.8 km/h 11.3 km/h 78% 0.0 mm CLR
00:40 15.6 °C 11.8 °C 1013.4 hPa WNW 5.8 km/h 7.4 km/h 78% 0.0 mm CLR
00:45 15.5 °C 11.7 °C 1013.4 hPa West 5.8 km/h 7.4 km/h 78% 0.0 mm CLR
00:50 15.5 °C 11.7 °C 1013.2 hPa West 3.9 km/h 7.4 km/h 78% 0.0 mm CLR
00:55 15.5 °C 11.7 °C 1013.2 hPa WNW 3.9 km/h 7.4 km/h 78% 0.0 mm CLR
01:00 15.5 °C 11.7 °C 1013.2 hPa WNW 3.2 km/h 8.0 km/h 78% 0.0 mm CLR
01:05 15.5 °C 11.7 °C 1013.4 hPa SSW 4.7 km/h 5.6 km/h 78% 0.0 mm CLR
01:10 15.6 °C 11.6 °C 1013.4 hPa West 5.0 km/h 9.3 km/h 77% 0.0 mm CLR
01:15 15.7 °C 11.5 °C 1013.4 hPa WSW 5.0 km/h 13.0 km/h 76% 0.0 mm CLR
01:20 15.7 °C 11.3 °C 1013.3 hPa West 6.4 km/h 11.1 km/h 75% 0.0 mm CLR
01:25 15.9 °C 11.3 °C 1013.3 hPa SSW 6.4 km/h 14.8 km/h 74% 0.0 mm CLR
01:30 15.9 °C 11.1 °C 1013.3 hPa WSW 8.7 km/h 16.7 km/h 73% 0.0 mm CLR
01:35 16.0 °C 11.2 °C 1013.2 hPa SW 8.7 km/h 15.6 km/h 73% 0.0 mm CLR
01:40 16.0 °C 11.4 °C 1013.2 hPa SW 9.5 km/h 13.0 km/h 74% 0.0 mm CLR
01:45 15.9 °C 11.3 °C 1013.2 hPa SW 9.5 km/h 9.3 km/h 74% 0.0 mm CLR
01:50 15.9 °C 11.4 °C 1013.0 hPa SW 8.4 km/h 14.8 km/h 75% 0.0 mm CLR
01:55 15.8 °C 11.4 °C 1013.0 hPa SW 8.4 km/h 9.3 km/h 75% 0.0 mm CLR
02:00 15.7 °C 11.3 °C 1013.0 hPa SW 8.0 km/h 12.9 km/h 75% 0.0 mm CLR
02:05 15.7 °C 11.3 °C 1012.8 hPa South 6.9 km/h 11.1 km/h 75% 0.0 mm CLR
02:10 15.6 °C 11.4 °C 1012.8 hPa South 6.4 km/h 10.0 km/h 76% 0.0 mm CLR
02:15 15.6 °C 11.4 °C 1012.8 hPa SE 6.4 km/h 7.4 km/h 76% 0.0 mm CLR
02:20 15.6 °C 11.4 °C 1012.4 hPa SE 5.0 km/h 7.4 km/h 76% 0.0 mm CLR
02:25 15.5 °C 11.3 °C 1012.4 hPa SSE 5.0 km/h 9.3 km/h 76% 0.0 mm CLR
02:30 15.4 °C 11.4 °C 1012.4 hPa South 5.8 km/h 14.8 km/h 77% 0.0 mm CLR
02:35 15.3 °C 11.3 °C 1012.2 hPa SSE 5.8 km/h 11.1 km/h 77% 0.0 mm CLR
02:40 15.3 °C 11.3 °C 1012.2 hPa SW 8.7 km/h 8.4 km/h 77% 0.0 mm CLR
02:45 15.4 °C 11.2 °C 1012.2 hPa South 8.7 km/h 13.0 km/h 76% 0.0 mm CLR
02:50 15.4 °C 11.2 °C 1012.2 hPa SSW 8.4 km/h 11.1 km/h 76% 0.0 mm CLR
02:55 15.5 °C 11.1 °C 1012.2 hPa South 8.4 km/h 9.3 km/h 75% 0.0 mm CLR
03:00 15.6 °C 11.2 °C 1012.2 hPa SSW 8.0 km/h 9.7 km/h 75% 0.0 mm CLR
03:05 15.6 °C 11.0 °C 1011.9 hPa SSW 7.6 km/h 3.7 km/h 74% 0.0 mm CLR
03:10 15.7 °C 10.9 °C 1011.9 hPa SSW 5.0 km/h 5.6 km/h 73% 0.0 mm CLR
03:15 15.7 °C 10.9 °C 1011.9 hPa SSW 5.0 km/h 3.7 km/h 73% 0.0 mm CLR
03:20 15.8 °C 10.8 °C 1011.6 hPa SSW 3.2 km/h 13.0 km/h 72% 0.0 mm CLR
03:25 15.9 °C 10.8 °C 1011.6 hPa SSW 3.2 km/h 13.0 km/h 72% 0.0 mm CLR
03:30 15.9 °C 10.8 °C 1011.6 hPa SSW 8.4 km/h 11.1 km/h 72% 0.0 mm CLR
03:35 16.0 °C 10.7 °C 1011.8 hPa SW 8.4 km/h 11.1 km/h 71% 0.0 mm CLR
03:40 16.1 °C 10.8 °C 1011.8 hPa SSW 8.4 km/h 5.6 km/h 71% 0.0 mm CLR
03:45 16.1 °C 10.6 °C 1011.8 hPa ESE 8.4 km/h 7.4 km/h 70% 0.0 mm CLR
03:50 16.1 °C 10.6 °C 1010.9 hPa ESE 2.9 km/h 5.6 km/h 70% 0.0 mm CLR
03:55 16.1 °C 10.8 °C 1010.9 hPa NE 2.9 km/h 7.4 km/h 71% 0.0 mm CLR
04:00 16.0 °C 10.7 °C 1010.9 hPa NE 3.2 km/h 9.7 km/h 71% 0.0 mm CLR
04:05 15.9 °C 10.4 °C 1010.1 hPa NE 4.7 km/h 3.9 km/h 70% 0.0 mm CLR
04:10 15.9 °C 10.2 °C 1010.1 hPa SSW 4.7 km/h 13.0 km/h 69% 0.0 mm CLR
04:15 16.1 °C 10.2 °C 1010.1 hPa SW 4.7 km/h 16.1 km/h 68% 0.0 mm CLR
04:20 16.2 °C 10.3 °C 1010.7 hPa West 10.0 km/h 13.0 km/h 68% 0.0 mm CLR
04:25 16.2 °C 10.5 °C 1010.7 hPa SSW 10.0 km/h 16.7 km/h 69% 0.0 mm CLR
04:30 16.2 °C 10.5 °C 1010.7 hPa SW 10.0 km/h 7.4 km/h 69% 0.0 mm CLR
04:35 16.1 °C 10.4 °C 1010.7 hPa WSW 10.0 km/h 11.1 km/h 69% 0.0 mm CLR
04:40 16.0 °C 10.3 °C 1010.7 hPa NW 6.4 km/h 5.6 km/h 69% 0.0 mm CLR
04:45 16.0 °C 10.3 °C 1010.7 hPa West 6.4 km/h 7.4 km/h 69% 0.0 mm CLR
04:50 15.9 °C 10.2 °C 1009.9 hPa NNW 3.9 km/h 8.7 km/h 69% 0.0 mm CLR
04:55 16.0 °C 10.3 °C 1009.9 hPa NE 3.9 km/h 3.9 km/h 69% 0.0 mm CLR
05:00 15.9 °C 10.0 °C 1009.9 hPa NE 3.2 km/h 6.4 km/h 68% 0.0 mm CLR
05:05 16.0 °C 9.9 °C 1010.3 hPa South 4.7 km/h 9.3 km/h 67% 0.0 mm CLR
05:10 16.1 °C 9.7 °C 1010.3 hPa NNW 4.7 km/h 9.3 km/h 66% 0.0 mm CLR
05:15 16.2 °C 9.8 °C 1010.3 hPa NNW 4.7 km/h 6.4 km/h 66% 0.0 mm CLR
05:20 16.2 °C 9.6 °C 1010.0 hPa SSE 4.7 km/h 13.7 km/h 65% 0.0 mm CLR
05:25 15.9 °C 10.2 °C 1010.0 hPa South 4.7 km/h 16.7 km/h 69% 0.0 mm CLR
05:30 15.8 °C 10.3 °C 1010.0 hPa South 11.1 km/h 14.8 km/h 70% 0.0 mm CLR
05:35 15.7 °C 10.2 °C 1010.1 hPa South 11.3 km/h 14.5 km/h 70% 0.0 mm CLR
05:40 15.8 °C 10.1 °C 1010.1 hPa South 8.7 km/h 5.6 km/h 69% 0.0 mm CLR
05:45 15.8 °C 10.1 °C 1010.1 hPa SW 8.7 km/h 17.2 km/h 69% 0.0 mm CLR
05:50 15.9 °C 10.0 °C 1010.0 hPa SSW 7.6 km/h 16.7 km/h 68% 0.0 mm CLR
05:55 16.0 °C 10.1 °C 1010.0 hPa WSW 7.6 km/h 14.8 km/h 68% 0.0 mm CLR
06:00 16.1 °C 9.9 °C 1010.0 hPa SW 8.0 km/h 17.7 km/h 67% 0.0 mm CLR
06:05 16.2 °C 10.1 °C 1010.2 hPa SW 8.4 km/h 13.0 km/h 67% 0.0 mm CLR
06:10 16.2 °C 10.1 °C 1010.2 hPa SW 9.5 km/h 13.0 km/h 67% 0.0 mm CLR
06:15 16.1 °C 9.9 °C 1010.2 hPa SW 9.5 km/h 14.8 km/h 67% 0.0 mm CLR
06:20 16.1 °C 9.9 °C 1010.2 hPa SW 7.6 km/h 14.8 km/h 67% 0.0 mm CLR
06:25 16.1 °C 9.9 °C 1010.2 hPa SSW 7.6 km/h 13.0 km/h 67% 0.0 mm CLR
06:30 16.1 °C 9.9 °C 1010.2 hPa SSW 8.4 km/h 18.5 km/h 67% 0.0 mm CLR
06:35 16.1 °C 9.9 °C 1010.2 hPa SSW 8.4 km/h 13.0 km/h 67% 0.0 mm CLR
06:40 16.1 °C 9.9 °C 1010.2 hPa SSW 10.3 km/h 16.7 km/h 67% 0.0 mm CLR
06:45 16.0 °C 9.9 °C 1010.2 hPa SSW 10.3 km/h 20.4 km/h 67% 0.0 mm CLR
06:50 16.1 °C 9.9 °C 1010.3 hPa SSW 10.0 km/h 13.0 km/h 67% 0.0 mm CLR
06:55 16.1 °C 9.9 °C 1010.3 hPa WSW 10.0 km/h 11.1 km/h 67% 0.0 mm CLR
07:00 16.1 °C 9.7 °C 1010.3 hPa SW 8.0 km/h 14.5 km/h 66% 0.0 mm CLR
07:05 16.1 °C 9.7 °C 1010.1 hPa WSW 7.6 km/h 9.5 km/h 66% 0.0 mm CLR
07:10 16.1 °C 9.9 °C 1010.1 hPa WSW 7.6 km/h 7.4 km/h 67% 0.0 mm CLR
07:15 16.1 °C 9.7 °C 1010.1 hPa South 7.6 km/h 7.4 km/h 66% 0.0 mm CLR
07:20 16.1 °C 9.9 °C 1010.4 hPa SW 5.0 km/h 9.3 km/h 67% 0.0 mm CLR
07:25 16.1 °C 9.9 °C 1010.4 hPa SW 5.0 km/h 12.2 km/h 67% 0.0 mm CLR
07:30 16.1 °C 9.7 °C 1010.4 hPa South 6.4 km/h 7.4 km/h 66% 0.0 mm CLR
07:35 16.1 °C 9.7 °C 1010.6 hPa SW 6.4 km/h 9.3 km/h 66% 0.0 mm CLR
07:40 16.2 °C 9.8 °C 1010.6 hPa SW 6.4 km/h 11.1 km/h 66% 0.0 mm CLR
07:45 16.2 °C 9.8 °C 1010.6 hPa WSW 6.4 km/h 9.3 km/h 66% 0.0 mm CLR
07:50 16.2 °C 9.8 °C 1010.3 hPa SW 5.0 km/h 5.6 km/h 66% 0.0 mm CLR
07:55 16.2 °C 9.8 °C 1010.3 hPa SSW 5.0 km/h 7.4 km/h 66% 0.0 mm CLR
08:00 16.2 °C 9.8 °C 1010.3 hPa SSW 4.8 km/h 11.3 km/h 66% 0.0 mm CLR
08:05 16.2 °C 9.8 °C 1010.4 hPa SW 5.0 km/h 7.4 km/h 66% 0.0 mm CLR
08:10 16.2 °C 9.8 °C 1010.4 hPa SW 5.8 km/h 9.3 km/h 66% 0.0 mm CLR
08:15 16.2 °C 9.8 °C 1010.4 hPa SSW 5.8 km/h   66% 0.0 mm CLR
08:20 16.3 °C 9.9 °C 1010.2 hPa SSW 3.9 km/h 9.3 km/h 66% 0.0 mm CLR
08:25 16.3 °C 9.9 °C 1010.2 hPa SSW 3.9 km/h 11.1 km/h 66% 0.0 mm CLR
08:30 16.3 °C 9.9 °C 1010.2 hPa SSW 7.6 km/h 9.5 km/h 66% 0.0 mm CLR
08:35 16.3 °C 9.7 °C 1010.5 hPa SSW 8.0 km/h 11.3 km/h 65% 0.0 mm CLR
08:40 16.4 °C 9.8 °C 1010.5 hPa SW 8.4 km/h 9.3 km/h 65% 0.0 mm CLR
08:45 16.4 °C 9.8 °C 1010.5 hPa SW 8.4 km/h 8.7 km/h 65% 0.0 mm CLR
08:50 16.4 °C 9.8 °C 1010.6 hPa SW 6.4 km/h 11.1 km/h 65% 0.0 mm CLR
08:55 16.4 °C 9.8 °C 1010.6 hPa SSW 6.4 km/h 9.5 km/h 65% 0.0 mm CLR
09:00 16.4 °C 9.8 °C 1010.6 hPa SSW 8.0 km/h 12.9 km/h 65% 0.0 mm CLR
09:05 16.4 °C 9.8 °C 1010.6 hPa SSW 7.6 km/h 13.0 km/h 65% 0.0 mm CLR
09:10 16.4 °C 9.8 °C 1010.6 hPa WSW 6.9 km/h 11.1 km/h 65% 0.0 mm CLR
09:15 16.5 °C 9.9 °C 1010.6 hPa SW 6.9 km/h 13.0 km/h 65% 0.0 mm CLR
09:20 16.6 °C 9.8 °C 1010.8 hPa SW 6.9 km/h 9.3 km/h 64% 0.0 mm CLR
09:25 16.6 °C 9.8 °C 1010.8 hPa SW 6.9 km/h 13.0 km/h 64% 0.0 mm CLR
09:30 16.6 °C 9.8 °C 1010.8 hPa SW 6.9 km/h 11.9 km/h 64% 0.0 mm CLR
09:35 16.6 °C 9.8 °C 1011.0 hPa SW 6.9 km/h 9.3 km/h 64% 0.0 mm CLR
09:40 16.6 °C 10.0 °C 1011.0 hPa SSW 6.9 km/h 13.0 km/h 65% 0.0 mm CLR
09:45 16.6 °C 10.0 °C 1011.0 hPa WSW 6.9 km/h 10.0 km/h 65% 0.0 mm CLR
09:50 16.6 °C 10.0 °C 1011.3 hPa SW 7.6 km/h 10.0 km/h 65% 0.0 mm CLR
09:55 16.6 °C 10.0 °C 1011.3 hPa WSW 7.6 km/h 13.0 km/h 65% 0.0 mm CLR
10:00 16.6 °C 10.0 °C 1011.3 hPa WSW 8.0 km/h 12.9 km/h 65% 0.0 mm CLR
10:05 16.6 °C 10.0 °C 1011.2 hPa SW 7.6 km/h 14.8 km/h 65% 0.0 mm CLR
10:10 16.6 °C 10.0 °C 1011.2 hPa SW 8.7 km/h 13.0 km/h 65% 0.0 mm CLR
10:15 16.6 °C 9.8 °C 1011.2 hPa WSW 8.7 km/h 19.0 km/h 64% 0.0 mm CLR
10:20 16.7 °C 9.8 °C 1010.9 hPa WSW 9.7 km/h 19.3 km/h 64% 0.0 mm CLR
10:25 16.6 °C 9.8 °C 1010.9 hPa West 9.5 km/h 11.1 km/h 64% 0.0 mm CLR
10:30 16.7 °C 9.8 °C 1010.9 hPa NW 6.9 km/h 13.0 km/h 64% 0.0 mm CLR
10:35 16.7 °C 9.8 °C 1010.8 hPa West 6.9 km/h 13.0 km/h 64% 0.0 mm CLR
10:40 16.7 °C 9.8 °C 1010.8 hPa WNW 7.6 km/h 11.1 km/h 64% 0.0 mm CLR
10:45 16.7 °C 9.6 °C 1010.8 hPa NW 7.6 km/h 11.1 km/h 63% 0.0 mm CLR
10:50 16.8 °C 9.7 °C 1010.7 hPa WNW 7.6 km/h 11.1 km/h 63% 0.0 mm CLR
10:55 16.8 °C 9.7 °C 1010.7 hPa West 7.6 km/h 11.1 km/h 63% 0.0 mm CLR
11:00 16.8 °C 9.7 °C 1010.7 hPa WNW 8.0 km/h 11.3 km/h 63% 0.0 mm CLR
11:05 16.8 °C 9.7 °C 1010.7 hPa NNW 8.4 km/h 7.4 km/h 63% 0.0 mm CLR
11:10 16.9 °C 9.8 °C 1010.7 hPa NW 5.8 km/h 7.4 km/h 63% 0.0 mm CLR
11:15 17.0 °C 9.7 °C 1010.7 hPa NW 5.8 km/h 5.6 km/h 62% 0.0 mm CLR
11:20 17.1 °C 9.8 °C 1010.6 hPa WNW 3.2 km/h 5.6 km/h 62% 0.0 mm CLR
11:25 17.2 °C 9.6 °C 1010.6 hPa WNW 3.2 km/h 7.4 km/h 61% 0.0 mm CLR
11:30 17.3 °C 9.4 °C 1010.6 hPa West 4.7 km/h 13.0 km/h 60% 0.0 mm CLR
11:35 17.2 °C 9.4 °C 1010.7 hPa WNW 4.7 km/h 9.3 km/h 60% 0.0 mm CLR
11:40 17.3 °C 9.4 °C 1010.7 hPa West 7.6 km/h 9.3 km/h 60% 0.0 mm CLR
11:45 17.3 °C 9.4 °C 1010.7 hPa WNW 7.6 km/h 11.1 km/h 60% 0.0 mm CLR
11:50 17.4 °C 9.3 °C 1010.6 hPa WNW 5.8 km/h 9.3 km/h 59% 0.0 mm CLR
11:55 17.5 °C 9.2 °C 1010.6 hPa West 5.8 km/h 14.0 km/h 58% 0.0 mm CLR
12:00 17.5 °C 9.2 °C 1010.6 hPa WNW 8.0 km/h 16.1 km/h 58% 0.0 mm CLR
12:05 17.5 °C 9.2 °C 1010.6 hPa WNW 7.6 km/h 18.5 km/h 58% 0.0 mm CLR
12:10 17.5 °C 9.4 °C 1010.6 hPa WNW 8.7 km/h 16.7 km/h 59% 0.0 mm CLR
12:15 17.5 °C 9.2 °C 1010.6 hPa WNW 8.7 km/h 13.0 km/h 58% 0.0 mm CLR
12:20 17.4 °C 9.1 °C 1010.5 hPa WNW 10.0 km/h 13.0 km/h 58% 0.0 mm CLR
12:25 17.5 °C 9.4 °C 1010.5 hPa West 10.0 km/h 11.1 km/h 59% 0.0 mm CLR
12:30 17.6 °C 9.2 °C 1010.5 hPa West 9.5 km/h 13.0 km/h 58% 0.0 mm CLR
12:35 17.6 °C 9.0 °C 1010.7 hPa West 9.5 km/h 13.0 km/h 57% 0.0 mm CLR
12:40 17.7 °C 9.1 °C 1010.7 hPa West 9.5 km/h 13.0 km/h 57% 0.0 mm CLR
12:45 17.8 °C 8.9 °C 1010.7 hPa SW 9.5 km/h 13.0 km/h 56% 0.0 mm CLR
12:50 17.8 °C 8.9 °C 1010.4 hPa WNW 10.0 km/h 18.5 km/h 56% 0.0 mm CLR
12:55 17.8 °C 8.9 °C 1010.4 hPa West 10.0 km/h 17.2 km/h 56% 0.0 mm CLR
13:00 17.8 °C 8.9 °C 1010.4 hPa West 12.9 km/h 20.9 km/h 56% 0.0 mm CLR
13:05 17.9 °C 8.7 °C 1010.6 hPa WSW 12.2 km/h 22.2 km/h 55% 0.0 mm CLR
13:10 17.9 °C 8.7 °C 1010.6 hPa WSW 10.3 km/h 20.4 km/h 55% 0.0 mm CLR
13:15 17.9 °C 8.7 °C 1010.6 hPa SSW 10.3 km/h 22.2 km/h 55% 0.0 mm CLR
13:20 17.9 °C 8.7 °C 1010.8 hPa WSW 15.6 km/h 22.2 km/h 55% 0.0 mm CLR
13:25 17.9 °C 8.7 °C 1010.8 hPa West 15.6 km/h 20.4 km/h 55% 0.0 mm CLR
13:30 17.9 °C 8.7 °C 1010.8 hPa West 13.7 km/h 14.8 km/h 55% 0.0 mm CLR
13:35 18.0 °C 8.8 °C 1010.6 hPa WSW 13.7 km/h 16.7 km/h 55% 0.0 mm CLR
13:40 18.1 °C 9.2 °C 1010.6 hPa WNW 10.0 km/h 20.4 km/h 56% 0.0 mm CLR
13:45 18.0 °C 9.1 °C 1010.6 hPa West 10.0 km/h 15.6 km/h 56% 0.0 mm CLR
13:50 17.9 °C 9.0 °C 1010.0 hPa NW 11.1 km/h 14.8 km/h 56% 0.0 mm CLR
13:55 17.9 °C 9.0 °C 1010.0 hPa West 11.1 km/h 18.5 km/h 56% 0.0 mm CLR
14:00 18.0 °C 9.1 °C 1010.0 hPa West 11.3 km/h 16.1 km/h 56% 0.0 mm CLR
14:05 18.0 °C 8.8 °C 1009.9 hPa West 11.9 km/h 13.0 km/h 55% 0.0 mm CLR
14:10 18.1 °C 8.9 °C 1009.9 hPa SW 10.0 km/h 12.2 km/h 55% 0.0 mm CLR
14:15 18.1 °C 8.9 °C 1009.9 hPa WSW 10.0 km/h 16.4 km/h 55% 0.0 mm CLR
14:20 18.2 °C 8.7 °C 1010.1 hPa WNW 10.0 km/h 13.0 km/h 54% 0.0 mm CLR
14:25 18.2 °C 8.7 °C 1010.1 hPa West 10.0 km/h 13.0 km/h 54% 0.0 mm CLR
14:30 18.2 °C 8.4 °C 1010.1 hPa WSW 8.4 km/h 14.8 km/h 53% 0.0 mm CLR
14:35 18.2 °C 8.4 °C 1010.1 hPa West 8.4 km/h 16.7 km/h 53% 0.0 mm CLR
14:40 18.2 °C 8.7 °C 1010.1 hPa WSW 10.3 km/h 13.0 km/h 54% 0.0 mm CLR
14:45 18.2 °C 8.7 °C 1010.1 hPa SW 10.3 km/h 18.5 km/h 54% 0.0 mm CLR
14:50 18.2 °C 9.0 °C 1010.6 hPa WSW 10.3 km/h 24.1 km/h 55% 0.0 mm CLR
14:55 17.6 °C 9.5 °C 1010.6 hPa WNW 10.3 km/h 37.0 km/h 59% 0.0 mm CLR
15:00 16.7 °C 8.9 °C 1010.6 hPa WNW 24.1 km/h 45.1 km/h 60% 0.0 mm CLR
15:05 15.9 °C 8.2 °C 1011.2 hPa West 23.3 km/h 46.3 km/h 60% 0.0 mm CLR
15:10 15.7 °C 8.2 °C 1011.2 hPa West 27.0 km/h 29.6 km/h 61% 0.0 mm CLR
15:15 15.7 °C 8.2 °C 1011.2 hPa WNW 27.0 km/h 38.9 km/h 61% 0.0 mm CLR
15:20 15.6 °C 8.1 °C 1010.8 hPa WNW 20.1 km/h 33.3 km/h 61% 0.0 mm CLR
15:25 15.6 °C 8.1 °C 1010.8 hPa West 20.1 km/h 33.3 km/h 61% 0.0 mm CLR
15:30 15.6 °C 7.8 °C 1010.8 hPa WNW 20.1 km/h 27.8 km/h 60% 0.0 mm CLR
15:35 15.6 °C 7.8 °C 1010.6 hPa West 20.1 km/h 27.8 km/h 60% 0.0 mm CLR
15:40 15.6 °C 7.8 °C 1010.6 hPa WNW 18.0 km/h 29.6 km/h 60% 0.0 mm CLR
15:45 15.5 °C 8.0 °C 1010.6 hPa West 18.0 km/h 29.6 km/h 61% 0.0 mm CLR
15:50 15.3 °C 8.1 °C 1010.8 hPa West 17.2 km/h 33.3 km/h 62% 0.0 mm CLR
15:55 15.0 °C 8.4 °C 1010.8 hPa West 17.2 km/h 24.1 km/h 65% 0.0 mm CLR
16:00 14.9 °C 8.6 °C 1010.8 hPa WNW 20.9 km/h 37.0 km/h 66% 0.0 mm CLR
16:05 14.7 °C 8.8 °C 1010.7 hPa WNW 20.1 km/h 20.9 km/h 68% 0.0 mm CLR
16:10 14.7 °C 9.1 °C 1010.7 hPa WNW 17.2 km/h 27.8 km/h 69% 0.0 mm CLR
16:15 14.5 °C 9.1 °C 1010.7 hPa WNW 17.2 km/h 24.1 km/h 70% 0.0 mm CLR
16:20 14.4 °C 9.2 °C 1010.6 hPa WSW 16.4 km/h 24.1 km/h 71% 0.0 mm CLR
16:25 14.5 °C 9.1 °C 1010.6 hPa West 16.4 km/h 21.7 km/h 70% 0.0 mm CLR
16:30 14.5 °C 8.9 °C 1010.6 hPa West 13.0 km/h 25.9 km/h 69% 0.0 mm CLR
16:35 14.6 °C 9.0 °C 1010.7 hPa West 13.0 km/h 19.0 km/h 69% 0.0 mm CLR
16:40 14.6 °C 9.0 °C 1010.7 hPa West 11.9 km/h 14.8 km/h 69% 0.0 mm CLR
16:45 14.6 °C 9.0 °C 1010.7 hPa WSW 11.9 km/h 20.4 km/h 69% 0.0 mm CLR
16:50 14.6 °C 9.0 °C 1010.6 hPa West 11.1 km/h 13.0 km/h 69% 0.0 mm CLR
16:55 14.7 °C 9.3 °C 1010.6 hPa WSW 11.1 km/h 24.1 km/h 70% 0.0 mm CLR
17:00 14.6 °C 9.2 °C 1010.6 hPa WSW 12.9 km/h 25.7 km/h 70% 0.0 mm CLR
17:05 14.7 °C 9.5 °C 1010.9 hPa WNW 13.0 km/h 18.5 km/h 71% 0.0 mm CLR
17:10 14.7 °C 9.5 °C 1010.9 hPa West 13.0 km/h 16.7 km/h 71% 0.0 mm CLR
17:15 14.7 °C 9.7 °C 1010.9 hPa SW 13.0 km/h 9.5 km/h 72% 0.0 mm CLR
17:20 14.7 °C 9.7 °C 1010.8 hPa WSW 10.0 km/h 16.7 km/h 72% 0.0 mm CLR
17:25 14.7 °C 9.7 °C 1010.8 hPa WSW 10.0 km/h 13.0 km/h 72% 0.0 mm CLR
17:30 14.7 °C 9.9 °C 1010.8 hPa WSW 9.5 km/h 9.3 km/h 73% 0.0 mm CLR
17:35 14.7 °C 10.1 °C 1010.6 hPa WSW 9.5 km/h 7.4 km/h 74% 0.0 mm CLR
17:40 14.8 °C 10.4 °C 1010.6 hPa SW 5.8 km/h 13.0 km/h 75% 0.0 mm CLR
17:45 14.8 °C 10.2 °C 1010.6 hPa West 5.8 km/h 11.1 km/h 74% 0.0 mm CLR
17:50 14.7 °C 10.3 °C 1010.6 hPa SW 6.4 km/h 5.6 km/h 75% 0.0 mm CLR
17:55 14.8 °C 10.2 °C 1010.6 hPa NW 6.4 km/h   74% 0.0 mm CLR
18:00 14.8 °C 10.2 °C 1010.6 hPa NNW 3.2 km/h   74% 0.0 mm CLR
18:05 14.8 °C 10.4 °C 1009.9 hPa NW 2.9 km/h 9.3 km/h 75% 0.0 mm CLR
18:10 14.8 °C 10.4 °C 1009.9 hPa NE 4.7 km/h 11.1 km/h 75% 0.0 mm CLR
18:15 14.7 °C 10.3 °C 1009.9 hPa NNE 4.7 km/h 13.0 km/h 75% 0.0 mm CLR
18:20 14.5 °C 10.3 °C 1009.4 hPa NNE 6.9 km/h 9.3 km/h 76% 0.0 mm CLR
18:25 14.4 °C 10.2 °C 1009.4 hPa NNE 6.9 km/h 20.4 km/h 76% 0.0 mm CLR
18:30 14.3 °C 10.3 °C 1009.4 hPa NNE 13.7 km/h 27.8 km/h 77% 0.0 mm CLR
18:35 14.2 °C 10.4 °C 1008.2 hPa ESE 13.7 km/h 24.1 km/h 78% 0.0 mm CLR
18:40 14.2 °C 10.4 °C 1008.2 hPa NE 15.6 km/h 9.5 km/h 78% 0.0 mm CLR
18:45 14.3 °C 10.5 °C 1008.2 hPa SSW 15.6 km/h 12.2 km/h 78% 0.0 mm CLR
18:50 14.4 °C 10.6 °C 1010.0 hPa West 8.4 km/h 18.5 km/h 78% 0.0 mm CLR
18:55 14.4 °C 10.4 °C 1010.0 hPa NNW 8.4 km/h 9.3 km/h 77% 0.0 mm CLR
19:00 14.4 °C 10.4 °C 1010.0 hPa NW 8.0 km/h 14.5 km/h 77% 0.0 mm CLR
19:05 14.4 °C 10.4 °C 1009.9 hPa WSW 8.4 km/h 13.0 km/h 77% 0.0 mm CLR
19:10 14.4 °C 10.4 °C 1009.9 hPa West 6.9 km/h 9.3 km/h 77% 0.0 mm CLR
19:15 14.5 °C 10.5 °C 1009.9 hPa WSW 6.9 km/h 9.3 km/h 77% 0.0 mm CLR
19:20 14.5 °C 10.7 °C 1009.9 hPa WSW 6.4 km/h 14.8 km/h 78% 0.0 mm CLR
19:25 14.5 °C 10.7 °C 1009.9 hPa WSW 6.4 km/h 11.1 km/h 78% 0.0 mm CLR
19:30 14.5 °C 10.7 °C 1009.9 hPa WSW 8.4 km/h 7.4 km/h 78% 0.0 mm CLR
19:35 14.6 °C 10.8 °C 1009.7 hPa WSW 8.4 km/h 5.6 km/h 78% 0.0 mm CLR
19:40 14.6 °C 10.8 °C 1009.7 hPa West 3.9 km/h 7.4 km/h 78% 0.0 mm CLR
19:45 14.7 °C 10.9 °C 1009.7 hPa West 3.9 km/h 3.7 km/h 78% 0.0 mm CLR
19:50 14.9 °C 10.9 °C 1009.9 hPa West 3.9 km/h 7.4 km/h 77% 0.0 mm CLR
19:55 15.2 °C 10.8 °C 1009.9 hPa SW 3.9 km/h 10.0 km/h 75% 0.0 mm CLR
20:00 15.3 °C 10.7 °C 1009.9 hPa WSW 4.8 km/h 11.3 km/h 74% 0.0 mm CLR
20:05 15.4 °C 10.6 °C 1010.1 hPa South 5.0 km/h 11.1 km/h 73% 0.0 mm CLR
20:10 15.5 °C 10.7 °C 1010.1 hPa SSW 6.9 km/h 11.1 km/h 73% 0.0 mm CLR
20:15 15.4 °C 10.6 °C 1010.1 hPa SSW 6.9 km/h 10.0 km/h 73% 0.0 mm CLR
20:20 15.5 °C 10.7 °C 1009.8 hPa SW 7.6 km/h 10.3 km/h 73% 0.0 mm CLR
20:25 15.5 °C 10.7 °C 1009.8 hPa SW 7.6 km/h 11.1 km/h 73% 0.0 mm CLR
20:30 15.4 °C 10.6 °C 1009.8 hPa WSW 6.9 km/h 5.6 km/h 73% 0.0 mm CLR
20:35 15.4 °C 10.8 °C 1010.0 hPa NW 6.9 km/h 5.6 km/h 74% 0.0 mm CLR
20:40 15.3 °C 10.5 °C 1010.0 hPa West 3.2 km/h 7.4 km/h 73% 0.0 mm CLR
20:45 15.3 °C 10.7 °C 1010.0 hPa NW 3.2 km/h 5.8 km/h 74% 0.0 mm CLR
20:50 15.3 °C 10.7 °C 1010.2 hPa NW 3.9 km/h 5.6 km/h 74% 0.0 mm CLR
20:55 15.2 °C 10.6 °C 1010.2 hPa NW 3.9 km/h 7.4 km/h 74% 0.0 mm CLR
21:00 15.2 °C 10.8 °C 1010.2 hPa NW 3.2 km/h 8.0 km/h 75% 0.0 mm CLR
21:05 15.1 °C 10.7 °C 1010.6 hPa West 3.2 km/h 5.6 km/h 75% 0.0 mm CLR
21:10 15.1 °C 10.7 °C 1010.6 hPa West 2.9 km/h 3.7 km/h 75% 0.0 mm CLR
21:15 15.1 °C 10.7 °C 1010.6 hPa West 2.9 km/h 5.6 km/h 75% 0.0 mm CLR
21:20 15.1 °C 10.7 °C 1010.7 hPa West 3.2 km/h 7.4 km/h 75% 0.0 mm CLR
21:25 15.1 °C 10.7 °C 1010.7 hPa West 3.2 km/h 5.6 km/h 75% 0.0 mm CLR
21:30 15.1 °C 10.7 °C 1010.7 hPa West 3.2 km/h 5.6 km/h 75% 0.0 mm CLR
21:35 15.1 °C 10.7 °C 1010.9 hPa West 3.2 km/h 3.7 km/h 75% 0.0 mm CLR
21:40 15.1 °C 10.7 °C 1010.9 hPa West 2.9 km/h 3.9 km/h 75% 0.0 mm CLR
21:45 15.2 °C 10.8 °C 1010.9 hPa West 2.9 km/h 5.6 km/h 75% 0.0 mm CLR
21:50 15.2 °C 10.8 °C 1011.2 hPa West 3.2 km/h 5.6 km/h 75% 0.0 mm CLR
21:55 15.2 °C 10.8 °C 1011.2 hPa West 3.2 km/h   75% 0.0 mm CLR
22:00 15.2 °C 10.8 °C 1011.2 hPa West 1.6 km/h 6.4 km/h 75% 0.0 mm CLR
22:05 15.1 °C 10.9 °C 1011.6 hPa ESE 2.3 km/h 3.7 km/h 76% 0.0 mm CLR
22:10 15.0 °C 10.8 °C 1011.6 hPa ESE 2.9 km/h   76% 0.0 mm CLR
22:15 15.0 °C 10.8 °C 1011.6 hPa ESE 2.9 km/h 1.9 km/h 76% 0.0 mm CLR
22:20 15.0 °C 10.8 °C 1011.9 hPa Calm   3.9 km/h 76% 0.0 mm CLR
22:25 15.0 °C 10.8 °C 1011.9 hPa Calm   1.9 km/h 76% 0.0 mm CLR
22:30 15.0 °C 10.8 °C 1011.9 hPa South 2.3 km/h 3.7 km/h 76% 0.0 mm CLR
22:35 15.0 °C 10.8 °C 1011.8 hPa South 2.3 km/h 3.7 km/h 76% 0.0 mm CLR
22:40 15.0 °C 10.8 °C 1011.8 hPa Calm     76% 0.0 mm CLR
22:45 15.0 °C 10.8 °C 1011.8 hPa Calm     76% 0.0 mm CLR
22:50 15.0 °C 10.6 °C 1012.1 hPa Calm   5.6 km/h 75% 0.0 mm CLR
22:55 15.1 °C 10.7 °C 1012.1 hPa Calm     75% 0.0 mm CLR
23:00 15.1 °C 10.9 °C 1012.1 hPa Calm     76% 0.0 mm CLR
23:05 15.1 °C 10.9 °C 1012.1 hPa Calm   3.7 km/h 76% 0.0 mm CLR
23:10 15.0 °C 10.8 °C 1012.1 hPa South 2.3 km/h 3.9 km/h 76% 0.0 mm CLR
23:15 14.9 °C 10.9 °C 1012.1 hPa South 2.3 km/h 3.7 km/h 77% 0.0 mm CLR
23:20 14.8 °C 10.8 °C 1012.2 hPa South 2.3 km/h 5.6 km/h 77% 0.0 mm CLR
23:25 14.7 °C 10.7 °C 1012.2 hPa South 2.3 km/h   77% 0.0 mm CLR
23:30 14.7 °C 10.7 °C 1012.2 hPa Calm     77% 0.0 mm CLR
23:35 14.7 °C 10.7 °C 1012.4 hPa Calm     77% 0.0 mm CLR
23:40 14.7 °C 10.7 °C 1012.4 hPa Calm     77% 0.0 mm CLR
23:45 14.7 °C 10.9 °C 1012.4 hPa Calm     78% 0.0 mm CLR
23:50 14.7 °C 10.7 °C 1012.5 hPa Calm     77% 0.0 mm CLR
23:55 14.7 °C 10.7 °C 1012.5 hPa Calm   5.6 km/h 77% 0.0 mm CLR
Murcia-Puente Tocinos, España
Compliments of Weather Underground - 2.75 mb

La estación de MeteoMurcia.com, publica sus datos en los siguientes proyectos:

Weather Underground PWS IMURCIAP2 Meteoclimatic www.awekas.at

W3Counter
Web Analytics